GFSNW_prec_pwat_000.txt.gz
Precipitable_Water
0.75 0.77 0.77 0.78 0.81 0.91 0.96 0.83 0.44 0.68 0.88 0.51 0.50 0.38 0.41 0.45 0.43 0.47 0.44 0.46 0.44 0.41 0.41 0.38 0.38 0.38 0.43 0.52 0.51 0.40 0.46 0.38 0.30 0.34 0.47 0.50 0.46 0.42 0.42 0.33 0.30 0.34 0.34 0.29
0.75 0.76 0.77 0.78 0.79 0.88 0.78 0.59 0.56 0.82 0.83 0.37 0.40 0.45 0.44 0.46 0.46 0.48 0.47 0.43 0.45 0.46 0.41 0.37 0.43 0.45 0.54 0.55 0.50 0.42 0.45 0.33 0.23 0.25 0.38 0.42 0.36 0.37 0.40 0.41 0.39 0.31 0.28 0.28
0.75 0.75 0.76 0.75 0.76 0.81 0.80 0.58 0.39 0.56 0.63 0.60 0.42 0.39 0.40 0.39 0.49 0.46 0.49 0.46 0.51 0.47 0.45 0.49 0.43 0.43 0.51 0.55 0.49 0.50 0.47 0.34 0.29 0.23 0.29 0.39 0.32 0.32 0.37 0.39 0.31 0.32 0.31 0.35
0.74 0.75 0.76 0.74 0.71 0.76 0.76 0.58 0.43 0.56 0.43 0.45 0.47 0.48 0.45 0.40 0.40 0.45 0.46 0.44 0.43 0.40 0.34 0.37 0.37 0.43 0.45 0.46 0.48 0.48 0.45 0.32 0.36 0.36 0.40 0.42 0.37 0.36 0.39 0.37 0.35 0.32 0.33 0.35
0.75 0.76 0.77 0.75 0.72 0.78 0.59 0.44 0.45 0.51 0.47 0.50 0.44 0.44 0.39 0.39 0.41 0.43 0.39 0.39 0.42 0.42 0.35 0.36 0.32 0.38 0.39 0.37 0.41 0.39 0.43 0.30 0.38 0.29 0.39 0.42 0.35 0.38 0.38 0.38 0.37 0.36 0.35 0.34
0.78 0.78 0.78 0.77 0.75 0.82 0.58 0.64 0.63 0.47 0.41 0.39 0.35 0.36 0.37 0.38 0.42 0.45 0.47 0.45 0.40 0.38 0.40 0.48 0.50 0.48 0.43 0.39 0.34 0.34 0.38 0.35 0.35 0.28 0.39 0.40 0.29 0.33 0.33 0.35 0.36 0.36 0.31 0.40
0.80 0.80 0.79 0.80 0.79 0.86 0.74 0.66 0.59 0.39 0.31 0.35 0.33 0.40 0.41 0.39 0.42 0.41 0.47 0.48 0.44 0.50 0.60 0.59 0.53 0.48 0.41 0.37 0.36 0.43 0.36 0.38 0.41 0.35 0.38 0.25 0.33 0.40 0.39 0.36 0.38 0.40 0.43 0.47
0.84 0.83 0.82 0.82 0.82 0.86 0.78 0.75 0.62 0.45 0.32 0.39 0.37 0.39 0.42 0.45 0.46 0.46 0.50 0.52 0.58 0.65 0.59 0.45 0.34 0.30 0.31 0.35 0.43 0.46 0.52 0.46 0.39 0.32 0.32 0.34 0.35 0.37 0.37 0.36 0.35 0.46 0.46 0.47
0.90 0.88 0.86 0.85 0.84 0.84 0.85 0.80 0.78 0.57 0.39 0.35 0.44 0.38 0.41 0.37 0.40 0.43 0.50 0.62 0.67 0.64 0.52 0.44 0.31 0.25 0.32 0.30 0.34 0.51 0.51 0.51 0.41 0.36 0.29 0.24 0.32 0.41 0.47 0.51 0.30 0.49 0.50 0.47
0.92 0.91 0.91 0.89 0.87 0.85 0.84 0.82 0.87 0.65 0.43 0.49 0.49 0.39 0.40 0.51 0.48 0.43 0.51 0.56 0.56 0.64 0.48 0.39 0.35 0.32 0.40 0.31 0.32 0.35 0.39 0.41 0.35 0.34 0.31 0.34 0.40 0.45 0.54 0.32 0.32 0.51 0.50 0.51
0.92 0.92 0.94 0.94 0.92 0.90 0.84 0.79 0.90 0.66 0.51 0.55 0.59 0.59 0.51 0.55 0.55 0.45 0.55 0.54 0.56 0.55 0.45 0.42 0.39 0.38 0.41 0.40 0.42 0.39 0.37 0.37 0.35 0.36 0.32 0.27 0.50 0.51 0.42 0.49 0.56 0.55 0.51 0.53
0.90 0.91 0.93 0.95 0.94 0.94 0.92 0.72 0.93 0.92 0.65 0.58 0.75 0.75 0.78 0.75 0.71 0.62 0.65 0.60 0.58 0.60 0.51 0.51 0.50 0.44 0.48 0.44 0.36 0.50 0.39 0.44 0.38 0.38 0.36 0.48 0.55 0.53 0.56 0.59 0.55 0.53 0.57 0.62
0.92 0.93 0.95 0.98 0.96 0.96 0.95 0.85 0.89 0.84 0.70 0.67 0.66 0.58 0.73 0.83 0.83 0.87 0.61 0.65 0.69 0.66 0.71 0.61 0.58 0.47 0.53 0.42 0.43 0.49 0.53 0.56 0.44 0.46 0.45 0.49 0.53 0.54 0.56 0.59 0.59 0.63 0.63 0.61
0.94 0.94 0.95 0.97 0.99 1.01 1.03 0.89 0.94 0.86 0.78 0.57 0.55 0.79 0.70 0.82 0.84 0.83 0.85 0.77 0.79 0.78 0.76 0.64 0.59 0.52 0.63 0.51 0.53 0.50 0.55 0.57 0.51 0.47 0.51 0.52 0.54 0.56 0.59 0.63 0.65 0.59 0.60 0.59
0.99 0.98 0.97 0.98 1.00 1.03 1.01 0.96 0.97 0.99 0.77 0.57 0.58 0.69 0.73 0.79 0.80 0.79 0.81 0.80 0.76 0.72 0.65 0.61 0.55 0.62 0.61 0.59 0.55 0.49 0.59 0.51 0.46 0.40 0.54 0.53 0.50 0.61 0.62 0.57 0.55 0.60 0.57 0.53
1.02 1.01 1.02 1.03 1.02 1.03 0.95 0.72 0.92 0.99 0.97 0.69 0.51 0.70 0.67 0.75 0.79 0.79 0.73 0.74 0.74 0.72 0.65 0.60 0.62 0.68 0.61 0.49 0.43 0.54 0.56 0.60 0.60 0.55 0.63 0.60 0.61 0.63 0.62 0.54 0.55 0.52 0.46 0.42
1.03 1.02 1.03 1.03 1.03 0.98 0.80 0.73 0.84 0.99 0.99 0.70 0.55 0.55 0.69 0.73 0.72 0.72 0.71 0.75 0.70 0.69 0.64 0.58 0.59 0.59 0.64 0.53 0.41 0.43 0.54 0.58 0.60 0.65 0.61 0.54 0.58 0.52 0.54 0.51 0.47 0.42 0.38 0.37
0.97 1.03 1.05 1.05 1.04 1.01 0.88 0.98 1.04 1.05 0.87 0.78 0.55 0.52 0.59 0.73 0.60 0.58 0.70 0.62 0.65 0.65 0.61 0.59 0.52 0.57 0.57 0.42 0.44 0.50 0.51 0.53 0.56 0.57 0.55 0.53 0.52 0.49 0.43 0.40 0.38 0.35 0.32 0.33
0.82 0.94 0.99 0.95 0.87 0.79 0.82 1.00 1.01 1.01 0.85 0.59 0.54 0.46 0.44 0.70 0.63 0.64 0.64 0.62 0.43 0.54 0.45 0.48 0.53 0.45 0.38 0.41 0.43 0.42 0.45 0.44 0.43 0.45 0.47 0.46 0.43 0.41 0.36 0.33 0.33 0.33 0.30 0.29
0.76 0.70 0.61 0.54 0.72 0.88 0.87 0.78 0.70 0.71 0.69 0.65 0.51 0.58 0.48 0.60 0.57 0.52 0.48 0.51 0.45 0.38 0.42 0.52 0.41 0.35 0.43 0.40 0.39 0.38 0.36 0.38 0.42 0.40 0.40 0.40 0.34 0.29 0.28 0.28 0.30 0.29 0.28 0.28
0.61 0.54 0.52 0.68 0.80 0.67 0.59 0.49 0.47 0.49 0.41 0.47 0.46 0.49 0.46 0.55 0.40 0.45 0.52 0.43 0.41 0.30 0.34 0.35 0.30 0.28 0.31 0.35 0.33 0.35 0.40 0.44 0.43 0.39 0.36 0.32 0.29 0.26 0.26 0.26 0.27 0.27 0.27 0.27
0.60 0.61 0.69 0.66 0.54 0.49 0.42 0.40 0.43 0.39 0.35 0.43 0.39 0.44 0.51 0.51 0.55 0.44 0.42 0.35 0.36 0.25 0.38 0.32 0.25 0.29 0.32 0.35 0.37 0.39 0.37 0.37 0.35 0.34 0.35 0.37 0.35 0.32 0.30 0.29 0.27 0.27 0.29 0.29
0.61 0.53 0.48 0.46 0.45 0.34 0.30 0.27 0.31 0.33 0.40 0.41 0.41 0.38 0.46 0.49 0.49 0.41 0.37 0.30 0.27 0.36 0.27 0.23 0.25 0.28 0.32 0.35 0.36 0.36 0.37 0.37 0.38 0.38 0.37 0.35 0.31 0.29 0.28 0.27 0.29 0.30 0.28 0.28
0.41 0.36 0.31 0.32 0.29 0.31 0.33 0.34 0.36 0.43 0.45 0.45 0.45 0.41 0.38 0.40 0.34 0.33 0.25 0.27 0.29 0.21 0.18 0.17 0.22 0.26 0.29 0.31 0.31 0.27 0.28 0.30 0.31 0.31 0.31 0.29 0.27 0.23 0.24 0.27 0.29 0.31 0.28 0.28
0.35 0.33 0.24 0.28 0.35 0.37 0.38 0.41 0.42 0.44 0.47 0.42 0.39 0.39 0.38 0.32 0.28 0.27 0.25 0.21 0.18 0.18 0.16 0.22 0.26 0.28 0.26 0.25 0.26 0.28 0.27 0.24 0.22 0.23 0.25 0.25 0.24 0.23 0.24 0.27 0.29 0.31 0.32 0.31
0.36 0.32 0.25 0.31 0.29 0.29 0.33 0.34 0.34 0.41 0.38 0.38 0.35 0.27 0.24 0.23 0.23 0.20 0.17 0.17 0.13 0.15 0.22 0.26 0.28 0.27 0.26 0.24 0.25 0.25 0.23 0.21 0.23 0.25 0.26 0.26 0.25 0.25 0.26 0.29 0.30 0.34 0.34 0.33
0.29 0.26 0.33 0.31 0.29 0.27 0.28 0.30 0.31 0.40 0.32 0.25 0.26 0.20 0.18 0.21 0.17 0.16 0.18 0.14 0.15 0.21 0.22 0.24 0.26 0.26 0.24 0.24 0.22 0.21 0.23 0.25 0.25 0.25 0.25 0.25 0.26 0.28 0.28 0.27 0.32 0.34 0.35 0.37

GFSNW_prec_pwat_006.txt.gz
Precipitable_Water
0.75 0.77 0.78 0.78 0.79 0.80 0.86 0.55 0.32 0.72 0.80 0.40 0.41 0.32 0.36 0.44 0.42 0.47 0.43 0.43 0.40 0.37 0.38 0.36 0.35 0.35 0.41 0.51 0.49 0.36 0.39 0.30 0.20 0.23 0.38 0.45 0.41 0.36 0.34 0.23 0.23 0.29 0.28 0.24
0.74 0.76 0.80 0.81 0.88 0.94 0.80 0.49 0.50 0.69 0.66 0.32 0.34 0.41 0.40 0.42 0.40 0.41 0.40 0.40 0.44 0.46 0.38 0.33 0.40 0.42 0.52 0.52 0.46 0.38 0.37 0.26 0.17 0.19 0.32 0.40 0.35 0.38 0.37 0.37 0.37 0.29 0.25 0.25
0.71 0.75 0.80 0.82 0.88 0.95 0.75 0.52 0.40 0.52 0.55 0.51 0.41 0.36 0.36 0.37 0.48 0.45 0.46 0.44 0.45 0.41 0.37 0.40 0.35 0.37 0.44 0.48 0.44 0.45 0.41 0.30 0.24 0.17 0.21 0.28 0.27 0.31 0.36 0.36 0.30 0.31 0.30 0.31
0.69 0.74 0.75 0.77 0.79 0.88 0.72 0.52 0.48 0.54 0.39 0.42 0.43 0.41 0.38 0.35 0.34 0.43 0.45 0.40 0.38 0.35 0.30 0.32 0.31 0.36 0.39 0.43 0.45 0.44 0.41 0.27 0.29 0.29 0.30 0.30 0.28 0.29 0.34 0.35 0.36 0.32 0.30 0.32
0.70 0.72 0.72 0.74 0.74 0.83 0.62 0.47 0.49 0.54 0.47 0.47 0.42 0.41 0.36 0.36 0.37 0.37 0.34 0.33 0.37 0.37 0.29 0.31 0.27 0.32 0.31 0.29 0.37 0.36 0.40 0.26 0.31 0.25 0.32 0.34 0.29 0.33 0.37 0.37 0.37 0.36 0.36 0.33
0.71 0.72 0.72 0.74 0.75 0.75 0.56 0.62 0.64 0.53 0.47 0.42 0.38 0.36 0.36 0.36 0.38 0.40 0.40 0.37 0.35 0.32 0.35 0.40 0.41 0.42 0.41 0.42 0.38 0.37 0.37 0.34 0.30 0.22 0.31 0.33 0.24 0.31 0.35 0.36 0.38 0.35 0.29 0.34
0.72 0.74 0.74 0.75 0.77 0.76 0.64 0.62 0.53 0.41 0.35 0.37 0.35 0.37 0.37 0.35 0.36 0.32 0.38 0.40 0.34 0.42 0.54 0.50 0.46 0.42 0.41 0.42 0.42 0.47 0.37 0.37 0.36 0.29 0.34 0.23 0.33 0.42 0.42 0.38 0.38 0.39 0.39 0.42
0.76 0.77 0.77 0.77 0.79 0.82 0.70 0.70 0.54 0.39 0.29 0.36 0.35 0.35 0.35 0.38 0.39 0.36 0.38 0.43 0.48 0.54 0.45 0.32 0.24 0.26 0.28 0.33 0.41 0.43 0.46 0.40 0.33 0.29 0.30 0.35 0.36 0.39 0.38 0.36 0.35 0.43 0.43 0.49
0.80 0.81 0.80 0.79 0.79 0.85 0.78 0.71 0.66 0.49 0.33 0.32 0.40 0.36 0.39 0.34 0.34 0.36 0.41 0.52 0.57 0.51 0.40 0.32 0.23 0.22 0.28 0.27 0.32 0.47 0.48 0.48 0.40 0.36 0.30 0.25 0.34 0.43 0.49 0.49 0.31 0.51 0.53 0.53
0.83 0.84 0.84 0.82 0.80 0.84 0.81 0.74 0.76 0.55 0.38 0.43 0.45 0.35 0.34 0.41 0.37 0.32 0.38 0.44 0.45 0.52 0.37 0.31 0.29 0.29 0.38 0.29 0.30 0.32 0.36 0.39 0.35 0.36 0.33 0.36 0.43 0.48 0.53 0.33 0.36 0.55 0.58 0.56
0.90 0.89 0.88 0.87 0.83 0.82 0.84 0.77 0.83 0.62 0.47 0.49 0.53 0.51 0.41 0.41 0.40 0.31 0.40 0.42 0.46 0.45 0.36 0.36 0.35 0.35 0.38 0.37 0.38 0.36 0.35 0.34 0.33 0.36 0.33 0.28 0.51 0.53 0.45 0.50 0.57 0.58 0.60 0.59
0.95 0.94 0.93 0.92 0.89 0.85 0.83 0.69 0.85 0.81 0.56 0.51 0.68 0.66 0.65 0.58 0.54 0.48 0.49 0.44 0.45 0.48 0.41 0.43 0.43 0.39 0.42 0.39 0.32 0.47 0.37 0.42 0.39 0.42 0.40 0.51 0.55 0.59 0.61 0.61 0.59 0.59 0.60 0.63
0.98 0.97 0.95 0.95 0.94 0.91 0.86 0.78 0.81 0.72 0.58 0.55 0.55 0.51 0.66 0.75 0.74 0.75 0.49 0.54 0.60 0.56 0.62 0.52 0.49 0.41 0.47 0.37 0.40 0.45 0.50 0.57 0.48 0.47 0.47 0.51 0.60 0.63 0.65 0.67 0.64 0.64 0.63 0.62
0.95 0.96 0.97 0.98 0.97 0.95 0.92 0.80 0.83 0.74 0.62 0.45 0.46 0.67 0.60 0.75 0.78 0.75 0.74 0.68 0.71 0.68 0.66 0.55 0.51 0.44 0.57 0.48 0.51 0.49 0.53 0.54 0.48 0.46 0.50 0.54 0.59 0.63 0.64 0.65 0.62 0.60 0.60 0.55
0.94 0.94 0.95 0.97 0.97 0.96 0.94 0.92 0.90 0.86 0.61 0.42 0.43 0.56 0.60 0.66 0.68 0.69 0.72 0.70 0.67 0.64 0.58 0.54 0.49 0.56 0.58 0.59 0.56 0.49 0.56 0.50 0.44 0.38 0.55 0.59 0.59 0.64 0.65 0.57 0.52 0.51 0.43 0.38
0.98 0.94 0.93 0.94 0.95 0.96 0.85 0.65 0.84 0.89 0.80 0.54 0.35 0.55 0.52 0.61 0.63 0.61 0.64 0.69 0.70 0.68 0.60 0.56 0.60 0.68 0.60 0.47 0.43 0.55 0.58 0.58 0.58 0.53 0.64 0.60 0.59 0.60 0.59 0.50 0.40 0.40 0.37 0.34
1.00 0.98 0.96 0.94 0.93 0.88 0.69 0.58 0.68 0.83 0.78 0.54 0.41 0.39 0.52 0.53 0.53 0.57 0.63 0.71 0.70 0.68 0.64 0.58 0.59 0.60 0.63 0.52 0.42 0.51 0.52 0.58 0.61 0.59 0.55 0.47 0.49 0.46 0.45 0.43 0.38 0.32 0.30 0.30
1.02 1.01 1.01 1.01 0.99 0.95 0.80 0.89 0.90 0.91 0.71 0.64 0.44 0.44 0.48 0.63 0.52 0.53 0.66 0.61 0.65 0.65 0.62 0.62 0.56 0.61 0.60 0.46 0.51 0.53 0.55 0.54 0.52 0.50 0.49 0.47 0.47 0.43 0.37 0.32 0.29 0.27 0.25 0.26
1.07 1.06 1.06 1.00 0.92 0.80 0.81 1.03 1.03 0.96 0.77 0.55 0.54 0.46 0.44 0.69 0.60 0.63 0.62 0.63 0.50 0.62 0.53 0.54 0.57 0.50 0.42 0.47 0.47 0.47 0.48 0.45 0.42 0.45 0.43 0.40 0.34 0.33 0.31 0.30 0.30 0.28 0.25 0.24
1.02 0.97 0.82 0.68 0.81 0.99 0.98 0.87 0.74 0.74 0.71 0.67 0.53 0.61 0.50 0.62 0.60 0.57 0.57 0.57 0.48 0.40 0.46 0.54 0.45 0.42 0.49 0.51 0.52 0.50 0.48 0.47 0.46 0.40 0.33 0.31 0.28 0.28 0.29 0.27 0.26 0.25 0.23 0.23
0.84 0.73 0.67 0.81 0.94 0.81 0.71 0.58 0.55 0.56 0.49 0.55 0.56 0.58 0.53 0.66 0.52 0.51 0.57 0.46 0.46 0.34 0.38 0.39 0.36 0.34 0.41 0.44 0.43 0.43 0.41 0.39 0.37 0.35 0.33 0.32 0.31 0.28 0.26 0.25 0.26 0.26 0.23 0.22
0.76 0.77 0.82 0.79 0.67 0.59 0.50 0.46 0.50 0.46 0.41 0.49 0.47 0.50 0.53 0.55 0.60 0.50 0.49 0.40 0.41 0.31 0.43 0.36 0.29 0.35 0.40 0.39 0.36 0.35 0.35 0.34 0.31 0.29 0.25 0.25 0.25 0.26 0.26 0.26 0.26 0.26 0.25 0.25
0.68 0.60 0.55 0.51 0.50 0.38 0.35 0.31 0.36 0.39 0.46 0.48 0.46 0.41 0.47 0.50 0.52 0.46 0.43 0.35 0.32 0.40 0.31 0.28 0.31 0.33 0.30 0.29 0.29 0.29 0.30 0.27 0.25 0.24 0.25 0.26 0.25 0.26 0.23 0.21 0.23 0.25 0.24 0.24
0.46 0.42 0.36 0.35 0.33 0.35 0.35 0.33 0.34 0.41 0.43 0.44 0.45 0.43 0.43 0.45 0.41 0.40 0.32 0.34 0.35 0.27 0.24 0.21 0.26 0.27 0.28 0.30 0.31 0.28 0.25 0.24 0.24 0.23 0.23 0.21 0.21 0.21 0.22 0.24 0.26 0.26 0.25 0.27
0.40 0.37 0.29 0.31 0.36 0.40 0.41 0.42 0.42 0.45 0.48 0.45 0.42 0.41 0.41 0.37 0.35 0.34 0.31 0.26 0.21 0.21 0.18 0.23 0.26 0.27 0.28 0.28 0.26 0.24 0.23 0.22 0.22 0.23 0.21 0.21 0.22 0.23 0.23 0.24 0.26 0.28 0.29 0.29
0.40 0.35 0.30 0.34 0.34 0.34 0.37 0.38 0.39 0.48 0.47 0.46 0.42 0.35 0.32 0.31 0.31 0.26 0.23 0.20 0.16 0.18 0.23 0.25 0.27 0.27 0.27 0.25 0.23 0.22 0.21 0.21 0.22 0.22 0.23 0.23 0.23 0.24 0.25 0.27 0.29 0.29 0.30 0.30
0.34 0.30 0.35 0.33 0.31 0.30 0.33 0.37 0.39 0.48 0.41 0.33 0.32 0.24 0.23 0.26 0.22 0.20 0.22 0.17 0.20 0.24 0.24 0.24 0.25 0.24 0.22 0.20 0.18 0.19 0.21 0.22 0.23 0.24 0.24 0.24 0.27 0.27 0.26 0.24 0.27 0.30 0.32 0.33

GFSNW_prec_pwat_009.txt.gz
Precipitable_Water
0.73 0.76 0.78 0.77 0.77 0.81 0.82 0.51 0.33 0.68 0.77 0.38 0.38 0.31 0.36 0.43 0.42 0.48 0.42 0.42 0.38 0.35 0.37 0.35 0.34 0.34 0.40 0.51 0.48 0.34 0.35 0.27 0.18 0.22 0.38 0.44 0.40 0.34 0.33 0.23 0.20 0.25 0.24 0.21
0.72 0.76 0.80 0.80 0.84 0.88 0.76 0.47 0.49 0.68 0.63 0.30 0.32 0.38 0.38 0.42 0.40 0.40 0.39 0.38 0.42 0.43 0.37 0.31 0.38 0.40 0.49 0.49 0.41 0.34 0.35 0.24 0.15 0.18 0.31 0.37 0.31 0.33 0.33 0.33 0.33 0.24 0.23 0.24
0.70 0.74 0.81 0.82 0.90 0.92 0.71 0.49 0.38 0.48 0.50 0.46 0.37 0.35 0.36 0.35 0.46 0.42 0.44 0.43 0.44 0.38 0.35 0.39 0.34 0.36 0.43 0.47 0.44 0.46 0.42 0.29 0.22 0.16 0.19 0.27 0.24 0.29 0.34 0.34 0.28 0.29 0.28 0.30
0.68 0.72 0.76 0.83 0.88 0.91 0.69 0.53 0.44 0.47 0.35 0.38 0.41 0.40 0.37 0.35 0.35 0.44 0.45 0.39 0.37 0.34 0.29 0.30 0.29 0.33 0.34 0.37 0.40 0.40 0.37 0.23 0.27 0.28 0.29 0.30 0.29 0.29 0.31 0.31 0.34 0.31 0.31 0.33
0.68 0.70 0.71 0.75 0.81 0.87 0.64 0.50 0.49 0.52 0.47 0.47 0.42 0.38 0.35 0.34 0.36 0.37 0.35 0.33 0.37 0.34 0.27 0.26 0.22 0.26 0.25 0.23 0.33 0.34 0.39 0.25 0.29 0.26 0.32 0.32 0.28 0.30 0.35 0.37 0.38 0.38 0.38 0.35
0.69 0.69 0.70 0.73 0.78 0.77 0.60 0.66 0.66 0.53 0.46 0.42 0.39 0.37 0.38 0.37 0.39 0.40 0.40 0.37 0.33 0.29 0.31 0.37 0.37 0.38 0.37 0.37 0.34 0.35 0.36 0.32 0.29 0.22 0.31 0.31 0.23 0.30 0.34 0.37 0.39 0.38 0.32 0.37
0.68 0.71 0.71 0.71 0.79 0.76 0.63 0.61 0.57 0.48 0.38 0.41 0.39 0.41 0.40 0.37 0.37 0.31 0.38 0.38 0.32 0.39 0.51 0.47 0.41 0.37 0.36 0.38 0.41 0.46 0.36 0.36 0.35 0.28 0.31 0.20 0.30 0.41 0.42 0.39 0.40 0.42 0.42 0.45
0.69 0.71 0.73 0.73 0.79 0.81 0.67 0.65 0.52 0.43 0.36 0.42 0.39 0.38 0.37 0.39 0.40 0.36 0.36 0.41 0.46 0.52 0.42 0.29 0.22 0.22 0.24 0.30 0.38 0.41 0.44 0.39 0.32 0.28 0.28 0.32 0.34 0.38 0.38 0.37 0.36 0.45 0.47 0.50
0.72 0.72 0.75 0.76 0.77 0.84 0.76 0.68 0.63 0.45 0.32 0.33 0.40 0.34 0.36 0.32 0.32 0.35 0.41 0.52 0.55 0.49 0.37 0.29 0.18 0.17 0.24 0.24 0.29 0.43 0.44 0.45 0.37 0.34 0.28 0.23 0.33 0.43 0.50 0.49 0.32 0.52 0.54 0.52
0.77 0.77 0.78 0.78 0.78 0.85 0.79 0.72 0.73 0.51 0.35 0.42 0.44 0.35 0.35 0.42 0.38 0.34 0.40 0.44 0.44 0.50 0.36 0.28 0.25 0.24 0.33 0.25 0.26 0.29 0.32 0.36 0.33 0.33 0.31 0.33 0.43 0.48 0.53 0.33 0.37 0.58 0.58 0.58
0.81 0.80 0.80 0.80 0.79 0.82 0.81 0.73 0.78 0.58 0.44 0.47 0.52 0.49 0.41 0.42 0.40 0.31 0.40 0.40 0.42 0.41 0.32 0.30 0.31 0.31 0.33 0.32 0.35 0.32 0.31 0.32 0.32 0.34 0.30 0.26 0.50 0.51 0.41 0.50 0.61 0.59 0.60 0.59
0.88 0.86 0.84 0.84 0.82 0.80 0.82 0.66 0.81 0.77 0.54 0.51 0.68 0.66 0.63 0.56 0.51 0.43 0.45 0.40 0.40 0.43 0.35 0.38 0.39 0.34 0.38 0.35 0.29 0.42 0.32 0.40 0.38 0.41 0.38 0.50 0.53 0.54 0.60 0.65 0.62 0.62 0.59 0.59
0.96 0.94 0.92 0.91 0.89 0.86 0.83 0.74 0.77 0.69 0.56 0.55 0.56 0.52 0.67 0.75 0.68 0.66 0.42 0.48 0.52 0.48 0.54 0.46 0.44 0.37 0.43 0.34 0.35 0.39 0.44 0.54 0.46 0.46 0.49 0.50 0.53 0.61 0.65 0.66 0.63 0.61 0.60 0.55
0.99 0.98 0.96 0.95 0.94 0.92 0.88 0.77 0.79 0.71 0.61 0.45 0.48 0.69 0.62 0.75 0.75 0.71 0.67 0.61 0.62 0.60 0.58 0.49 0.46 0.42 0.52 0.43 0.46 0.43 0.47 0.56 0.49 0.48 0.50 0.52 0.54 0.62 0.65 0.65 0.63 0.56 0.48 0.43
0.96 0.97 0.97 0.98 0.98 0.97 0.93 0.89 0.87 0.84 0.62 0.45 0.47 0.60 0.64 0.67 0.64 0.62 0.64 0.61 0.57 0.54 0.49 0.48 0.47 0.55 0.54 0.55 0.53 0.44 0.57 0.52 0.47 0.42 0.53 0.53 0.57 0.61 0.65 0.59 0.50 0.45 0.41 0.36
0.96 0.96 0.97 0.97 0.97 0.97 0.86 0.66 0.86 0.90 0.82 0.58 0.40 0.57 0.53 0.56 0.57 0.57 0.57 0.59 0.57 0.56 0.51 0.51 0.59 0.67 0.56 0.45 0.42 0.56 0.60 0.62 0.63 0.55 0.61 0.60 0.60 0.61 0.55 0.46 0.43 0.37 0.31 0.26
1.01 0.99 0.99 0.97 0.96 0.90 0.71 0.62 0.73 0.89 0.82 0.57 0.42 0.38 0.50 0.53 0.51 0.50 0.50 0.56 0.55 0.57 0.58 0.56 0.58 0.59 0.61 0.51 0.43 0.57 0.61 0.63 0.61 0.60 0.58 0.51 0.54 0.46 0.45 0.40 0.35 0.33 0.31 0.31
1.06 1.05 1.03 1.01 0.99 0.94 0.77 0.85 0.87 0.84 0.66 0.56 0.36 0.35 0.40 0.55 0.45 0.44 0.57 0.53 0.59 0.62 0.60 0.61 0.55 0.58 0.57 0.44 0.54 0.57 0.58 0.57 0.56 0.57 0.57 0.52 0.48 0.43 0.40 0.37 0.34 0.29 0.25 0.23
1.09 1.07 1.04 0.96 0.87 0.76 0.77 0.94 0.92 0.87 0.68 0.48 0.46 0.37 0.34 0.59 0.51 0.55 0.57 0.61 0.51 0.63 0.54 0.55 0.56 0.50 0.42 0.50 0.51 0.52 0.54 0.52 0.53 0.50 0.46 0.45 0.40 0.38 0.35 0.31 0.27 0.24 0.22 0.24
1.05 0.98 0.81 0.69 0.80 0.98 0.99 0.88 0.75 0.74 0.72 0.68 0.52 0.59 0.48 0.60 0.57 0.55 0.56 0.59 0.50 0.43 0.48 0.55 0.45 0.43 0.51 0.52 0.55 0.54 0.54 0.53 0.49 0.40 0.35 0.33 0.30 0.28 0.26 0.24 0.25 0.27 0.26 0.25
0.87 0.73 0.68 0.82 0.95 0.83 0.73 0.60 0.57 0.58 0.51 0.57 0.57 0.58 0.54 0.67 0.51 0.51 0.57 0.48 0.47 0.36 0.39 0.40 0.36 0.35 0.42 0.47 0.45 0.47 0.45 0.41 0.37 0.33 0.30 0.28 0.25 0.23 0.23 0.23 0.23 0.22 0.21 0.21
0.80 0.79 0.84 0.80 0.69 0.61 0.52 0.49 0.51 0.49 0.44 0.52 0.52 0.55 0.59 0.59 0.62 0.51 0.51 0.43 0.42 0.31 0.42 0.36 0.29 0.37 0.43 0.43 0.39 0.37 0.35 0.30 0.29 0.28 0.26 0.25 0.26 0.25 0.23 0.21 0.20 0.22 0.23 0.23
0.79 0.68 0.59 0.55 0.53 0.42 0.39 0.35 0.39 0.41 0.47 0.50 0.50 0.47 0.53 0.55 0.56 0.48 0.43 0.36 0.33 0.40 0.32 0.29 0.32 0.35 0.34 0.33 0.33 0.31 0.31 0.29 0.27 0.26 0.26 0.26 0.23 0.22 0.21 0.21 0.23 0.24 0.24 0.25
0.55 0.48 0.40 0.41 0.38 0.40 0.40 0.39 0.41 0.46 0.48 0.48 0.49 0.45 0.44 0.47 0.43 0.42 0.34 0.36 0.36 0.28 0.24 0.23 0.30 0.30 0.30 0.31 0.31 0.28 0.25 0.25 0.24 0.23 0.22 0.21 0.21 0.20 0.22 0.23 0.25 0.25 0.24 0.26
0.44 0.42 0.34 0.37 0.43 0.46 0.46 0.48 0.46 0.48 0.51 0.47 0.44 0.43 0.43 0.39 0.36 0.36 0.34 0.29 0.25 0.25 0.22 0.25 0.27 0.28 0.29 0.28 0.27 0.24 0.23 0.22 0.21 0.20 0.20 0.21 0.22 0.22 0.22 0.24 0.25 0.26 0.26 0.26
0.43 0.38 0.34 0.38 0.37 0.37 0.40 0.42 0.41 0.49 0.48 0.48 0.44 0.36 0.34 0.32 0.33 0.29 0.27 0.25 0.21 0.22 0.25 0.26 0.27 0.26 0.26 0.25 0.23 0.21 0.20 0.19 0.20 0.22 0.22 0.23 0.23 0.23 0.23 0.24 0.25 0.26 0.27 0.26
0.37 0.33 0.37 0.35 0.33 0.33 0.36 0.40 0.41 0.49 0.43 0.34 0.34 0.29 0.28 0.32 0.28 0.26 0.28 0.22 0.22 0.24 0.25 0.26 0.25 0.24 0.22 0.21 0.19 0.18 0.20 0.21 0.22 0.22 0.23 0.24 0.25 0.25 0.24 0.22 0.24 0.26 0.27 0.29

GFSNW_prec_pwat_012.txt.gz
Precipitable_Water
0.74 0.77 0.76 0.75 0.76 0.80 0.74 0.46 0.33 0.60 0.67 0.36 0.38 0.29 0.33 0.42 0.41 0.46 0.43 0.42 0.38 0.36 0.37 0.34 0.33 0.33 0.39 0.49 0.43 0.30 0.32 0.26 0.20 0.23 0.36 0.43 0.39 0.33 0.32 0.22 0.22 0.27 0.24 0.21
0.74 0.77 0.78 0.77 0.80 0.82 0.69 0.46 0.47 0.65 0.62 0.29 0.31 0.36 0.37 0.42 0.41 0.42 0.40 0.38 0.41 0.42 0.36 0.31 0.36 0.38 0.47 0.47 0.40 0.34 0.34 0.25 0.17 0.21 0.31 0.38 0.34 0.34 0.33 0.32 0.32 0.25 0.24 0.24
0.73 0.77 0.80 0.80 0.84 0.87 0.67 0.50 0.40 0.50 0.51 0.45 0.36 0.34 0.36 0.36 0.46 0.42 0.42 0.40 0.43 0.39 0.35 0.39 0.35 0.35 0.41 0.43 0.39 0.39 0.36 0.27 0.21 0.16 0.20 0.26 0.26 0.30 0.34 0.33 0.27 0.28 0.28 0.31
0.72 0.75 0.79 0.83 0.87 0.82 0.67 0.51 0.43 0.48 0.34 0.36 0.38 0.39 0.39 0.35 0.34 0.43 0.44 0.39 0.39 0.35 0.30 0.32 0.30 0.33 0.32 0.34 0.36 0.36 0.34 0.22 0.27 0.27 0.27 0.28 0.30 0.30 0.31 0.30 0.34 0.32 0.33 0.35
0.69 0.72 0.76 0.84 0.88 0.82 0.63 0.47 0.45 0.47 0.42 0.42 0.39 0.40 0.39 0.36 0.37 0.39 0.35 0.34 0.37 0.35 0.28 0.26 0.22 0.24 0.24 0.23 0.33 0.32 0.36 0.26 0.28 0.24 0.28 0.29 0.28 0.31 0.33 0.36 0.37 0.39 0.40 0.38
0.69 0.70 0.71 0.77 0.84 0.81 0.61 0.65 0.63 0.53 0.44 0.42 0.40 0.40 0.39 0.37 0.40 0.42 0.43 0.40 0.35 0.30 0.31 0.34 0.36 0.38 0.36 0.35 0.32 0.33 0.34 0.31 0.27 0.21 0.30 0.29 0.25 0.30 0.33 0.36 0.41 0.41 0.35 0.41
0.70 0.70 0.70 0.73 0.77 0.73 0.68 0.65 0.61 0.50 0.39 0.45 0.43 0.43 0.43 0.40 0.40 0.36 0.40 0.40 0.32 0.38 0.48 0.44 0.40 0.37 0.36 0.37 0.38 0.43 0.35 0.34 0.33 0.27 0.30 0.19 0.32 0.40 0.39 0.38 0.40 0.43 0.43 0.47
0.72 0.71 0.70 0.71 0.77 0.75 0.64 0.64 0.58 0.53 0.40 0.47 0.45 0.45 0.43 0.43 0.43 0.38 0.37 0.41 0.45 0.52 0.43 0.29 0.21 0.22 0.23 0.29 0.36 0.38 0.43 0.38 0.30 0.26 0.26 0.29 0.32 0.37 0.38 0.37 0.36 0.46 0.47 0.51
0.76 0.72 0.72 0.72 0.78 0.78 0.70 0.65 0.64 0.53 0.44 0.43 0.49 0.42 0.43 0.36 0.36 0.37 0.41 0.50 0.55 0.49 0.36 0.27 0.16 0.16 0.21 0.21 0.27 0.40 0.42 0.43 0.35 0.31 0.26 0.22 0.35 0.43 0.48 0.48 0.32 0.53 0.53 0.52
0.76 0.76 0.73 0.74 0.77 0.80 0.75 0.68 0.69 0.51 0.37 0.46 0.47 0.38 0.36 0.42 0.40 0.35 0.41 0.44 0.43 0.50 0.33 0.25 0.22 0.22 0.28 0.21 0.22 0.25 0.30 0.33 0.29 0.30 0.29 0.33 0.45 0.48 0.53 0.32 0.38 0.56 0.57 0.56
0.77 0.78 0.76 0.75 0.76 0.82 0.78 0.69 0.75 0.57 0.43 0.47 0.52 0.50 0.42 0.42 0.42 0.33 0.42 0.41 0.42 0.39 0.29 0.28 0.27 0.25 0.29 0.28 0.30 0.29 0.29 0.30 0.30 0.33 0.30 0.28 0.51 0.50 0.43 0.49 0.56 0.59 0.58 0.58
0.79 0.78 0.79 0.79 0.78 0.79 0.82 0.66 0.77 0.74 0.55 0.52 0.67 0.64 0.61 0.56 0.52 0.44 0.45 0.40 0.37 0.43 0.35 0.35 0.34 0.28 0.31 0.30 0.25 0.40 0.31 0.37 0.34 0.36 0.35 0.51 0.57 0.58 0.60 0.61 0.58 0.60 0.57 0.57
0.84 0.81 0.82 0.82 0.80 0.80 0.79 0.72 0.75 0.69 0.57 0.57 0.59 0.55 0.67 0.73 0.65 0.65 0.41 0.45 0.48 0.45 0.52 0.43 0.39 0.30 0.37 0.27 0.31 0.37 0.45 0.50 0.42 0.43 0.46 0.53 0.59 0.62 0.64 0.65 0.61 0.61 0.59 0.53
0.91 0.89 0.88 0.87 0.87 0.85 0.83 0.73 0.76 0.70 0.59 0.43 0.50 0.71 0.64 0.75 0.76 0.70 0.65 0.56 0.57 0.56 0.55 0.44 0.39 0.33 0.45 0.37 0.42 0.42 0.48 0.52 0.45 0.45 0.51 0.56 0.58 0.64 0.63 0.62 0.67 0.61 0.52 0.45
0.95 0.95 0.94 0.94 0.94 0.92 0.91 0.87 0.85 0.82 0.62 0.47 0.51 0.65 0.70 0.72 0.71 0.67 0.66 0.60 0.55 0.51 0.45 0.42 0.38 0.46 0.43 0.47 0.48 0.43 0.54 0.48 0.45 0.43 0.58 0.57 0.58 0.59 0.63 0.60 0.53 0.48 0.42 0.36
0.97 0.98 0.98 0.98 0.98 0.97 0.88 0.69 0.89 0.91 0.84 0.59 0.45 0.66 0.61 0.63 0.63 0.60 0.58 0.58 0.56 0.52 0.46 0.43 0.48 0.52 0.47 0.39 0.40 0.52 0.57 0.60 0.63 0.58 0.66 0.64 0.62 0.63 0.60 0.50 0.47 0.42 0.38 0.34
0.97 0.97 0.98 0.98 0.98 0.95 0.76 0.67 0.78 0.92 0.87 0.60 0.47 0.46 0.57 0.60 0.58 0.55 0.54 0.57 0.53 0.51 0.49 0.44 0.46 0.49 0.54 0.48 0.40 0.56 0.60 0.60 0.62 0.66 0.64 0.56 0.59 0.53 0.50 0.46 0.43 0.40 0.36 0.30
1.00 0.99 0.99 0.98 0.97 0.93 0.80 0.88 0.89 0.90 0.74 0.66 0.44 0.40 0.42 0.55 0.43 0.41 0.53 0.47 0.53 0.54 0.52 0.53 0.51 0.56 0.58 0.45 0.54 0.56 0.58 0.58 0.61 0.60 0.63 0.58 0.54 0.47 0.44 0.41 0.36 0.29 0.25 0.25
1.08 1.05 1.04 0.98 0.88 0.74 0.78 0.95 0.95 0.91 0.70 0.47 0.43 0.33 0.29 0.52 0.44 0.48 0.50 0.54 0.42 0.57 0.49 0.52 0.57 0.51 0.44 0.51 0.52 0.52 0.56 0.56 0.54 0.54 0.51 0.46 0.41 0.37 0.33 0.27 0.24 0.23 0.23 0.23
1.07 0.99 0.85 0.70 0.82 1.00 1.01 0.84 0.70 0.69 0.68 0.64 0.47 0.53 0.41 0.51 0.50 0.50 0.52 0.57 0.49 0.42 0.49 0.57 0.47 0.44 0.53 0.55 0.55 0.55 0.56 0.54 0.51 0.43 0.37 0.33 0.28 0.25 0.24 0.24 0.25 0.24 0.21 0.20
0.89 0.75 0.70 0.84 0.97 0.85 0.75 0.62 0.58 0.57 0.49 0.56 0.55 0.57 0.53 0.66 0.52 0.52 0.59 0.50 0.49 0.38 0.42 0.42 0.38 0.36 0.43 0.49 0.48 0.48 0.47 0.44 0.38 0.33 0.30 0.28 0.26 0.24 0.24 0.23 0.22 0.21 0.22 0.22
0.82 0.81 0.86 0.82 0.71 0.63 0.55 0.50 0.54 0.50 0.46 0.54 0.52 0.56 0.61 0.61 0.68 0.55 0.53 0.46 0.46 0.34 0.45 0.38 0.31 0.38 0.42 0.43 0.43 0.43 0.39 0.34 0.30 0.29 0.27 0.27 0.27 0.26 0.23 0.21 0.21 0.22 0.23 0.23
0.82 0.70 0.62 0.59 0.55 0.44 0.42 0.38 0.41 0.42 0.50 0.53 0.54 0.51 0.58 0.58 0.59 0.50 0.47 0.39 0.36 0.44 0.34 0.30 0.33 0.39 0.41 0.42 0.40 0.37 0.33 0.31 0.28 0.27 0.27 0.27 0.25 0.23 0.22 0.21 0.23 0.24 0.23 0.25
0.58 0.51 0.43 0.45 0.40 0.43 0.44 0.45 0.47 0.53 0.54 0.53 0.54 0.49 0.48 0.50 0.46 0.46 0.36 0.40 0.39 0.30 0.26 0.26 0.33 0.35 0.36 0.35 0.33 0.30 0.28 0.26 0.25 0.25 0.25 0.22 0.21 0.21 0.22 0.23 0.25 0.24 0.23 0.24
0.50 0.49 0.38 0.40 0.46 0.49 0.50 0.51 0.50 0.53 0.56 0.53 0.49 0.47 0.47 0.43 0.39 0.40 0.37 0.32 0.27 0.28 0.25 0.30 0.33 0.33 0.32 0.31 0.30 0.29 0.26 0.24 0.23 0.21 0.21 0.21 0.22 0.21 0.22 0.24 0.24 0.25 0.25 0.25
0.45 0.44 0.40 0.44 0.43 0.42 0.46 0.47 0.46 0.53 0.51 0.52 0.48 0.41 0.37 0.35 0.36 0.32 0.30 0.27 0.24 0.26 0.31 0.34 0.33 0.30 0.29 0.28 0.28 0.25 0.23 0.20 0.21 0.22 0.23 0.23 0.23 0.23 0.22 0.23 0.23 0.23 0.25 0.25
0.39 0.36 0.43 0.42 0.41 0.41 0.43 0.46 0.46 0.53 0.46 0.38 0.39 0.32 0.31 0.36 0.31 0.29 0.31 0.26 0.29 0.31 0.31 0.30 0.29 0.27 0.26 0.26 0.24 0.22 0.20 0.20 0.22 0.22 0.23 0.24 0.25 0.25 0.24 0.20 0.22 0.25 0.27 0.28